Home   Weather   Matamoros   Past weeks

Flag for Mexico Past Weather in Matamoros, Tamaulipas, Mexico — Yesterday and Last 2 Weeks

Now
75 °F

Passing clouds.


Feels Like: 75 °F
Forecast: 47 / 68 °F
Wind: 7 mph from Southeast

Location: Brownsville / South Padre Island International Airport

Current Time: Dec 7, 2016 at 6:34:18 pm

Latest Report: Dec 7, 2016 at 5:53 pm


Visibility: 10 mi

Pressure: 29.94 "Hg

Humidity: 85%

Dew Point: 70 °F

Location of MatamorosLocation

Past Weather in Matamoros — Graph

°F

Matamoros Temperature Yesterday

Maximum temperature yesterday: 80 °F (at 1:53 pm)
Minimum temperature yesterday: 48 °F (at 5:53 am)
Average temperature yesterday: 64 °F

High & Low Weather Summary for the Past Weeks

 TemperatureHumidityPressure
High86 °F (Nov 28, 1:53 pm)100% (Nov 23, 6:53 am)30.29 "Hg (Nov 23, 6:53 am)
Low48 °F (Dec 6, 5:53 am)34% (Nov 30, 10:53 am)29.54 "Hg (Nov 29, 2:53 pm)
Average71 °F82%29.93 "Hg
* Reported Nov 22 4:53 pm — Dec 7 4:53 pm, Matamoros, Weather by CustomWeather, © 2016

Note: Actual official high and low records may vary slightly from our data, if they occured in-between our weather recording intervals... More about our weather records

Advertising

Matamoros Weather History for the Previous 24 Hours

Scroll right to see more
 ConditionsComfort  
Time TempWeatherWind HumidityBarometerVisibility
4:53 pm
Wed, Dec 7
78 °FOvercast.13 mph76%29.92 "Hg10 mi
3:53 pm80 °FBroken clouds.14 mph69%29.91 "Hg10 mi
2:53 pm79 °FBroken clouds.13 mph69%29.91 "Hg10 mi
1:53 pm80 °FCloudy.13 mph67%29.92 "Hg10 mi
12:53 pm80 °FMore clouds than sun.13 mph64%29.94 "Hg10 mi
11:53 am81 °FPartly sunny.15 mph65%29.97 "Hg10 mi
10:53 am78 °FPartly sunny.6 mph76%30.00 "Hg10 mi
9:53 am72 °FPartly sunny.No wind91%30.01 "Hg10 mi
8:53 am66 °FOvercast.No wind100%30.01 "Hg10 mi
7:53 am63 °FFog.No wind97%29.98 "Hg5 mi
6:53 am62 °FFog.3 mph96%29.98 "Hg1 mi
5:53 am62 °FFog.5 mph100%29.96 "Hg3 mi
4:53 am66 °FPassing clouds.6 mph100%29.95 "Hg10 mi
3:53 am66 °FOvercast.7 mph100%29.96 "Hg10 mi
2:52 am64 °FFog.7 mph97%29.96 "Hg2 mi
1:53 am64 °FFog.3 mph100%29.96 "Hg1 mi
1:03 am63 °FFog.3 mph97%29.97 "Hg3 mi
11:53 pm
Tue, Dec 6
64 °FFog.No wind97%29.97 "Hg2 mi
10:58 pm61 °FFog.No wind97%29.98 "Hg1 mi
9:53 pm62 °FFog.3 mph100%29.98 "Hg6 mi
8:53 pm63 °FClear.3 mph100%29.96 "Hg10 mi
7:53 pm66 °FClear.5 mph93%29.95 "Hg10 mi
6:53 pm66 °FClear.5 mph90%29.94 "Hg10 mi
Weather by CustomWeather, © 2016

See weather overviewHow to use our weather pages